Regional Weather Roundup
Issued by NWS Pendleton, OR

Home | Current Version | Previous Version | Text Only | Print | Product List | Glossary On
Versions: 1 2 3 4 5 6 7 8 9 10 11 12 13 14 15 16 17 18 19 20 21 22 23 24 25 26 27 28 29 30 31 32 33 34 35 36 37 38 39 40 41 42 43 44 45 46 47 48 49 50
000
ASUS46 KPDT 280910
RWRPDT
PENDLETON REGIONAL WEATHER ROUNDUP
NATIONAL WEATHER SERVICE PENDLETON OREGON
200 AM PDT WED SEP 28 2016

NOTE: FAIR INDICATES FEW OR NO CLOUDS BELOW 12,000 FEET WITH NO
SIGNIFICANT WEATHER AND/OR OBSTRUCTIONS TO VISIBILITY.

# INDICATES UNOFFICIAL STATION AND DATA

WAZ520-281010-
EAST SLOPES OF WASHINGTON CASCADES

CITY            SKY/WX      TMP DP  RH  WIND    PRES   REMARKS
#CLE ELUM HS    N/A         45  42  89  CALM    30.03S
#CLE ELUM LAKE  N/A         49  44  83  CALM    29.99R
#GLENWOOD       N/A         41  39  93  CALM    30.00S
#MANASTASH CYN  N/A         49  32  52  CALM    30.06S
#NELSON 3SW     N/A         46  41  83  CALM    30.22S
#NILE           N/A         48  42  80  W2      29.32S
#RONALD 2NW     N/A         45  N/A N/A N1      30.13S
#TEANAWAY 4NE   N/A         45  43  93  CALM    N/A
#TROUT LAKE 1NE N/A         46  43  89  CALM    29.98F
#TROUT LAKE 1E  N/A         45  42  89  CALM    30.00F
$$

WAZ521-281010-
SIMCOE HIGHLANDS

CITY            SKY/WX      TMP DP  RH  WIND    PRES   REMARKS
#CENTERVILLE 1SWN/A         46  41  83  CALM    29.94S
#GOLDENDALE 1NE N/A         48  33  56  N3      N/A
#GOLDENDALE 4W  N/A         48  47  96  NE1     30.05S
#LYLE 6NE       N/A         56  52  86  E2      29.93F
$$

WAZ026-281010-
KITTITAS VALLEY

CITY            SKY/WX      TMP DP  RH  WIND    PRES   REMARKS
ELLENSBURG AP   PTCLDY      48  42  80  CALM    30.06F
#ELLENSBURG CWU N/A         51  45  80  CALM    29.96S
#ELLENSBURG 3NE N/A         49  45  86  CALM    30.06S
#ELLENSBURG 1E  N/A         49  N/A N/A CALM    N/A
#KITTITAS 4N    N/A         49  41  74  N1      30.06S
#KITTITAS 3S    N/A         49  45  86  CALM    30.00R
#THORP 6N       N/A         50  45  83  N5      30.03R
$$

WAZ027-281010-
YAKIMA VALLEY

CITY            SKY/WX      TMP DP  RH  WIND    PRES   REMARKS
SUNNYSIDE AP    PTCLDY      47  45  93  CALM    30.01S
YAKIMA AIRPORT  PTCLDY      56  44  64  W9      30.04S HAZE
YAKIMA-VAGABOND CLEAR       56  42  59  E9      30.03S
#GRANDVIEW      N/A         59  45  60  CALM    29.99S
#MABTON         N/A         58  45  62  SW2     30.00R
#NACHES 2SW     N/A         55  45  69  W5      30.06S
#TERRACE HTS    N/A         61  45  56  CALM    29.93S
#TOPPENISH      N/A         59  46  62  CALM    29.90S
#WEST VALLEY    N/A         53  44  71  CALM    29.98F
#WHITE SWAN 5E  N/A         51  44  77  CALM    30.00R
#WILEY CITY 3W  N/A         49  39  68  CALM    30.01S
$$

WAZ028-281010-
LOWER COLUMBIA BASIN...WASHINGTON

CITY            SKY/WX      TMP DP  RH  WIND    PRES   REMARKS
HANFORD         CLEAR       63  40  43  NW12    30.00S
PASCO           PTCLDY      52  46  80  CALM    30.00S
PROSSER AWOS    N/A         52  46  80  CALM    30.03S
RICHLAND AWOS   PTCLDY      61  43  51  N5      30.00R
#BENTON CITY    N/A         57  49  75  CALM    29.88S
#CONNELL 5N     N/A         53  42  66  N2      29.97S
#CONNELL 5NW    N/A         55  43  64  N6      29.94R
#ELTOPIA 6NW    N/A         58  44  60  CALM    28.97R
#KAHLOTUS       N/A         54  42  64  N5      29.95S
#KENNEWICK 3S   N/A         62  45  54  CALM    29.98R
#PATERSON       N/A         58  50  75  E1      29.96R
#SAGEMOOR 2W    N/A         60  42  51  NW5     29.82R
#TOUCHET 2S     N/A         49  45  86  CALM    29.95S
#WEST PASCO     N/A         57  45  64  CALM    29.98R
$$

WAZ029-281010-
FOOTHILLS OF THE BLUES...WASHINGTON

CITY            SKY/WX      TMP DP  RH  WIND    PRES   REMARKS
WALLA WALLA AP  CLEAR       61  49  65  SE6     29.99S
#CLYDE 6NW      N/A         53  43  69  CALM    29.94S
#DAYTON SCHOOL  N/A         54  41  61  CALM    30.01F
#LOWDEN 2SE     N/A         52  49  89  CALM    29.95R
#PLEASANT VIEW 1N/A         63  45  52  CALM    29.96S
#PRESCOTT       N/A         50  45  83  CALM    29.95S
#WHITMAN COLLEGEN/A         60  52  75  CALM    29.99R
#WAITSBURG 5S   N/A         57  47  69  CALM    30.02S
#WALLA WALLA U  N/A         59  52  78  CALM    29.95R
#WHITMAN MISSIONN/A         53  49  86  CALM    29.98R
$$

WAZ030-281010-
BLUE MOUNTAINS...WASHINGTON

CITY            SKY/WX      TMP DP  RH  WIND    PRES   REMARKS
#DIXIE 5SE      N/A         67  49  52  SE2     29.98S
$$

ORZ009-041-WAZ024-281010-
COLUMBIA RIVER GORGE

CITY            SKY/WX      TMP DP  RH  WIND    PRES   REMARKS
HOOD RIVER AP   PTCLDY      52  46  80  CALM    30.02S
THE DALLES AP   CLEAR       61  51  70  VRB3    29.99S
#ARLINGTON AIRPON/A         62  52  70  W1      29.96S
#CELILO DOT     N/A         64  51  63  SW3     N/A
#MOSIER 1S      N/A         56  45  66  CALM    30.00S
#MURDOCK        N/A         64  54  70  NW12    29.94S
#RUFUS DOT      N/A         67  52  59  W9      N/A
#SMITHVILLE     N/A         63  53  70  W10     29.92S

$$

ORZ510-281010-
NORTH CENTRAL OREGON

CITY            SKY/WX      TMP DP  RH  WIND    PRES   REMARKS
#ANTELOPE       N/A         57  38  49  CALM    29.79S
#COW CYN RST AREN/A         58  N/A N/A NE6     N/A
#DUFUR 9E       N/A         59  47  64  W2      29.99F
#GRASS VALLEY 1SN/A         54  44  69  CALM    29.97F
#KENT DOT       N/A         52  36  54  CALM    N/A
#MAUPIN SCHOOL  N/A         58  47  67  CALM    30.04S
#SHANIKO 5WSW   N/A         58  34  40  N8      N/A
#TYGH VALLEY 2NEN/A         54  45  71  N1      29.96F
#WAPANITIA AIRPON/A         53  47  80  CALM    29.96S
#WASCO DOT      N/A         50  46  86  E2      N/A
#WASCO AIRPORT  N/A         56  48  74  W3      N/A
#WASCO 5NE      N/A         55  48  77  CALM    29.94F
$$

ORZ511-281010-
CENTRAL OREGON

CITY            SKY/WX      TMP DP  RH  WIND    PRES   REMARKS
BEND AIRPORT    CLEAR       52  43  71  CALM    30.07S
MADRAS AIRPORT  PTCLDY      57  48  72  CALM    30.05S
PRINEVILLE AP   CLEAR       54  43  66  S3      30.06S
REDMOND AIRPORT CLEAR       49  41  74  CALM    30.05S
#ASHWOOD SCHOOL N/A         52  39  61  CALM    29.99F
#BEND 1SW       N/A         47  39  74  CALM    N/A
#BEND-AWBREY    N/A         56  47  72  CALM    29.91S
#CULVER         N/A         52  45  77  CALM    29.88S
#CULVER 8W      N/A         52  46  80  CALM    30.03S
#LAKE BILLY CHINN/A         58  N/A N/A CALM    30.09S
#POWELL BUTTE 3EN/A         52  40  63  S2      N/A
#PRINEVILLE 3N  N/A         48  42  80  E3      29.95R

$$


ORZ509-281010-
EAST SLOPES OF OREGON CASCADES

CITY            SKY/WX      TMP DP  RH  WIND    PRES   REMARKS
#BLUE BOX PASS  N/A         56  N/A N/A NE6     N/A
#CAMP SHERMAN   N/A         45  40  82  CALM    29.99F
#LA PINE DOT    N/A         45  35  68  CALM    N/A
#LA PINE 4NW    N/A         44  35  70  CALM    29.98S
#LAVA BUTTE DOT N/A         48  40  74  CALM    N/A
#SISTERS AIRPOR N/A         45  43  93  CALM    30.17S
#SISTERS ODOT   N/A         47  N/A N/A CALM    N/A
#SISTERS 3N     N/A         44  32  62  CALM    30.06S
#SUNRIVER       N/A         48  42  80  CALM    29.97S
#SUTTLE LK DOT  N/A         46  46  100 CALM    N/A
#TUMALO 3W      N/A         59  45  60  NW2     29.78S
#WANOGA BUTTE D N/A         60  40  47  CALM    N/A

$$

ORZ044-281010-
LOWER COLUMBIA BASIN...OREGON

CITY            SKY/WX      TMP DP  RH  WIND    PRES   REMARKS
HERMISTON       PTCLDY      56  45  66  CALM    29.98S
#BOARDMAN SCHOOLN/A         53  46  77  CALM    29.98R
#BOARDMAN 8SW   N/A         59  46  62  W2      29.96R
#I-84 EX 198 DOTN/A         61  47  60  CALM    N/A
#UMATILLA       N/A         57  46  67  CALM    29.90F
$$

ORZ507-281010-
NORTHERN FOOTHILLS OF THE BLUES

CITY            SKY/WX      TMP DP  RH  WIND    PRES   REMARKS
PENDLETON AIRPT CLEAR       54  44  69  CALM    30.00S
#ADAMS 3WNW     N/A         52  47  83  CALM    29.96R
#ATHENA         N/A         50  46  86  CALM    29.98S
#CAYUSE         N/A         58  49  72  NW7     29.93S
#HELIX SCHOOL   N/A         52  45  77  CALM    29.95S
#HELIX 3N       N/A         57  46  67  N1      29.98S
#HELIX 6SW      N/A         51  44  77  CALM    30.00S
#HOLDMAN 5SE    N/A         52  46  80  CALM    30.00R
#HOLDMAN 6E     N/A         57  45  64  CALM    29.76S
#M-F GROVE ELEM N/A         58  47  67  CALM    29.98R
#M-FREEWATER 5SEN/A         60  50  69  CALM    30.00R
#PENDLETON DNTN N/A         55  42  61  CALM    30.01S
#PDT AQUATIC CTRN/A         55  40  57  CALM    30.02S
#PDT SUNRIDGE   N/A         51  46  83  CALM    30.01S
#PENDLETON 7NW  N/A         52  43  71  CALM    32.46S
#PILOT ROCK 1S  N/A         58  44  60  CALM    30.02R
#PILOT ROCK     N/A         56  44  64  SW2     30.04R
#TUTUILLA       N/A         51  46  83  CALM    29.98R
#UMAPINE 2E     N/A         54  49  83  CALM    29.96S
#WESTON SCHOOL  N/A         59  46  62  CALM    29.88R

$$

ORZ508-281010-
SOUTHERN FOOTHILLS OF THE BLUES

CITY            SKY/WX      TMP DP  RH  WIND    PRES   REMARKS
LEXINGTON       CLEAR       55  39  55  E9      30.04S
#AJAX           N/A         59  37  44  CALM    27.77F
#CONDON SCHOOL  N/A         57  42  57  CALM    30.00S
#CONDON 5W      N/A         58  39  49  N3      30.03S
#FOSSIL SCHOOL  N/A         50  36  58  CALM    29.99S
#HEPPNER EOC    N/A         56  44  64  E3      29.89S
#HEPPNER 4NE    N/A         51  37  59  E2      29.93S
#RUGGS 5NE      N/A         60  39  46  N3      30.17F
#RUGGS 2SW      N/A         56  36  47  S6      29.95F

$$

ORZ502-503-281010-
BLUE MOUNTAINS

CITY            SKY/WX      TMP DP  RH  WIND    PRES   REMARKS
MEACHAM         CLEAR       43  38  82  CALM    30.09S
#BATTLE MTN DOT N/A         54  42  64  N3      N/A
#CUTSFORTH PARK N/A         43  40  89  CALM    29.86F
#HARDMAN 10S    N/A         56  40  55  CALM    30.02F
#HEPPNER 15SE   N/A         50  40  68  CALM    25.61F
#LADD CYN SMT   N/A         51  44  77  CALM    N/A
#LADD CREEK ODOTN/A         54  40  59  S3      N/A
#LONG CREEK HS  N/A         51  47  86  SW5     30.06F
#N POWDER DOT   N/A         46  42  86  SW2     N/A
#PIKES PEAK     N/A         64  47  54  CALM    27.99S
#TOLLGATE       N/A         51  44  77  CALM    29.99F
#TROY SCHOOL    N/A         55  48  77  CALM    29.83R
#UKIAH          N/A         43  41  93  CALM    29.93R
#WESTON 4E      N/A         62  48  60  CALM    29.88S
$$

ORZ505-281010-
JOHN DAY BASIN

CITY            SKY/WX      TMP DP  RH  WIND    PRES   REMARKS
JOHN DAY        CLEAR       61  41  48  CALM    30.07S
#DAYVILLE SCHOOLN/A         57  42  57  CALM    30.00S
#MITCHELL       N/A         53  44  71  CALM    30.21S
#MITCHELL 8NW   N/A         61  39  44  CALM    30.09S
#MONUMENT HS    N/A         53  46  77  CALM    29.93S
#MT. VERNON 5SE N/A         58  42  55  CALM    30.03S
#SPRAY SCHOOL   N/A         52  N/A N/A CALM    N/A
$$

ORZ506-281010-
OCHOCO AND JOHN DAY HIGHLANDS

CITY            SKY/WX      TMP DP  RH  WIND    PRES   REMARKS
#BUCK CREEK DOT N/A         60  42  51  CALM    N/A
#HORSE RIDGE DO N/A         45  36  70  CALM    N/A
#KEYES SMT DOT  N/A         58  37  45  NE3     N/A
#PAULINA SCHOOL N/A         47  36  65  SW2     N/A
#PINE MTN OBS   N/A         58  41  53  NW1     N/A
#PRAIRIE CITY   N/A         49  41  74  CALM    30.20F
#SENECA         N/A         41  N/A N/A CALM    N/A
#SENECA 9NW     N/A         41  35  79  CALM    29.96S
$$

ORZ049-281010-
GRANDE RONDE VALLEY

CITY            SKY/WX      TMP DP  RH  WIND    PRES   REMARKS
LA GRANDE       CLEAR       55  37  51  CALM    30.05S
#COVE SCHOOL    N/A         55  45  69  CALM    30.06S
#COVE 6NW       N/A         48  41  77  CALM    29.93S
#ELGIN 3N       N/A         51  43  74  CALM    30.03S
#ELGIN 1E       N/A         52  43  71  CALM    N/A
#IMBLER SCHOOL  N/A         50  44  80  CALM    30.01S
#ISLAND CITY 4N N/A         54  42  64  CALM    30.05S
#LADD CYN DOT   N/A         59  46  62  SE8     N/A
#LA GRANDE ELEM N/A         56  46  69  CALM    30.06S
#UNION 1S       N/A         53  45  74  CALM    29.93S
$$

ORZ050-281010-
WALLOWA COUNTY

CITY            SKY/WX      TMP DP  RH  WIND    PRES   REMARKS
JOSEPH AIRPORT  CLEAR       46  41  83  S3      30.12S
#IMNAHA SCHOOL  N/A         54  46  74  N1      30.03R
#JOSEPH 3N      N/A         43  35  73  CALM    30.11F
#JOSEPH 3W      N/A         54  42  64  SW2     29.96S
#LOSTINE        N/A         48  43  83  CALM    29.79R
#LOSTINE 3SE    N/A         50  41  71  SE2     30.08R
#MT HOWARD 8000 N/A         56  29  35  CALM    30.32S
#PROMISE 1S     N/A         54  45  71  CALM    30.02F
#WALLOWA SCHOOL N/A         46  42  86  CALM    30.03S



$$



USA.gov is the U.S. government's official web portal to all federal, state and local government web resources and services.